Location: Hurstbourne Priors
(51.2000°N, 1.3667°W)
Time: 21:46:05
(UTC+00:00)

Transit 4A - Pass Details

Date: 24 April 2021
Orbit: 871 x 974 km, 66.8° (Epoch: 16 May)

Event Time Altitude Azimuth Distance (km) Brightness Sun altitude
Rises 22:07:03 0° 193° (SSW) 3,620 - -20.8°
Reaches altitude 10° 22:09:42 10° 187° (S) 2,666 - -21.0°
Exits shadow 22:14:30 42° 145° (SE) 1,317 8.2 -21.4°
Maximum altitude 22:15:34 46° 117° (ESE) 1,241 8.2 -21.5°
Drops below altitude 10° 22:21:19 10° 46° (NE) 2,613 10.4 -21.9°
Sets 22:23:53 0° 41° (NE) 3,543 11.2 -22.1°
